World > North America > United States > Ohio

Bidwell, Ohio Regional Weather

Lat: 38.92N, Lon: 82.3W
Wx Zone: OHZ086
Feedback

Bidwell, OH Regional Weather

Expires:201910141300;;694503
ASUS41 KCLE 141212
RWRCLE
OHIO REGIONAL WEATHER ROUNDUP
NATIONAL WEATHER SERVICE WILMINGTON, OH
800 AM EDT MON OCT 14 2019

NOTE: "FAIR" INDICATES FEW OR NO CLOUDS BELOW 12,000 FEET WITH NO
SIGNIFICANT WEATHER AND/OR OBSTRUCTIONS TO VISIBILITY.


OHZ036-037-039>041-045>050-054>059-063>069-073>076-082>088-141300-
  CENTRAL AND SOUTHEAST OHIO
  
CITY           SKY/WX    TMP DP  RH WIND       PRES   REMARKS
COLUMBUS       FAIR      45  36  70 CALM      30.03R                  
OSU AIRPORT    FAIR      39  35  86 CALM      30.03R                  
BOLTON FIELD   CLEAR     37  36  93 CALM      30.04R                  
RICKENBACK AFB FAIR      39  35  86 CALM      30.03R                  
NEWARK         FAIR      41  36  82 CALM      30.02R                  
MARION         FAIR      41  36  82 SW3       30.02R                  
LANCASTER      FAIR      45  37  73 W6        30.03R                  
ZANESVILLE     FAIR      42  37  82 S5        30.02R                  
NEW PHILLY     FAIR      40  37  89 CALM      30.02R                  
$$
  

SKY/WX - Weather  TMP - Temperature  DP - Dew Point  RH - Relative Humidity
WIND - Wind Direction/Speed PRES - Barometric Pressure VSB - Visibility
WCI - Wind Chill Index E13G22 Wind - East Wind 13 mph/Gusts of 22 mph